STARLINK-32585, 61953

Orbit data source: Space-Track

STARLINK-32585, 61953 is a payload satellite owned by SpaceX/Seattle (US) in LEO that was launched on Thu, 14 Nov 2024 UTC via an FALCON 9 launch vehicle from the Air Force Western Test Range (AFWTR). Payload-class satellites include a variety of spacecraft equipped with specific instruments for various scientific and technological missions. These include communications satellites like Starlink; space stations such as the ISS; scientific satellites like the Hubble; Earth observation satellites from companies like Planet Labs, Umbra, and HawkEye 360; GPS; miniature CubeSats for education and research; and military/defense satellites.

Loading next visibility...
Identifier
61953, 2024-209Q
Orbit
LEO
Country
Flag of USUS
Related business
Manufacturer
SpaceX/Seattle
Mission
Operational Commercial Communications
Bus & Motor
STARLINK V2M, Unknown motor
Mass
730 kg wet, ~700 kg dry
Launch date (UTC)
2024-11-14 (2 years ago)
Launch vehicle
FALCON 9
Launch site
Air Force Western Test Range (AFWTR)
Object type
Payload
Rocket body
Debris
Shape & HBR
Box + 2 Pan, 17.7 m
Radar Cross Section
33.884 m², Large (>1 m²)

Expand to show TLE details & history
Last TLE update: 23 hours ago

TLE from 23 hours ago
0 STARLINK-32585
1 61953U 24209Q   26170.88256949  .00034419  00000-0  62344-3 0  9991
2 61953  53.1588  22.7097 0000934  71.6346 288.4765 15.49342579 90611
Epoch: 2026-06-19T21:10Z
TLE epoch observation values (Epoch: 2026-06-19T21:10:54.003Z)
Latitude
-0.00001°
Longitude
156.87951°
Altitude
419.354 km
Speed
7.661 km/s
True Right ascension
01h 30m 50s
True Declination
0° 00' 00"
Sunlit
Object was in daylight at epoch
Visualization orbit readout
Latitude
Unknown
Longitude
Unknown
Altitude
Unknown
Speed
Unknown
Apparent Right ascension
Unknown
Apparent Declination
Unknown
Sunlit
N/A
Visualization observer readout
Local Sidereal Time
07:18:08
Azimuth
Unknown
Elevation
Unknown
Doppler factor
Unknown
Orbital elements
Apogee altitude
419.542 km
Perigee altitude
418.272 km
Semi-major axis
6,797.044 km
Eccentricity
0.00009
Inclination
53.1588°
RAAN
22.7097°
Arg. of periapsis
71.6346°
True anomaly
288.46635°
Mean anomaly
288.4765°
Eccentric anomaly
288.47142°
Mean motion
3.87314 °/min
Orbital period
92.95 mins
BSTAR
0.00062344
Loading maneuver chart data...
Computing Atmospheric mass density...
Loading historical data...
Loading historical data...
Loading historical data...
Loading historical data...
Loading historical data...
Loading historical data...
Loading historical data...

Documentation

Showing up to 5 results
|